Powrót do katalogu

FLTSATCOM 5

AktywnyMilitariaGEO
NORAD 12635·PAYLOAD·🇺🇸 United States

Wystrzelony Aug 6, 1981 z Cape Canaveral Space Force Station

Loading…

TLE

ŚwieżeSource: Space-Track

Epoka: Sep 14, 2026, 14:13 UTC

1 12635U 81073A   26257.59243442 -.00000011  00000-0  00000-0 0  9994
2 12635  13.6948 306.7250 0009194 196.3297 150.7029  0.98603480133945

Śledź FLTSATCOM 5 w czasie rzeczywistym z AllMySat

Download on the App Store